Stations météo

Publicité
Avignon, France (7563): Température de l'air & dewpoint: 03.07.2020 00:00:00 - 09.07.2020 00:00:00 (CEST)Avignon, France (7563): Température de l'air 5cm: 03.07.2020 00:00:00 - 09.07.2020 00:00:00 (CEST)Avignon, France (7563): Vitesse du vent & gusts: 03.07.2020 00:00:00 - 09.07.2020 00:00:00 (CEST)Avignon, France (7563): Direction du vent: 03.07.2020 00:00:00 - 09.07.2020 00:00:00 (CEST)Avignon, France (7563): reduced air pressure: 03.07.2020 00:00:00 - 09.07.2020 00:00:00 (CEST)Avignon, France (7563): visibility: 03.07.2020 00:00:00 - 09.07.2020 00:00:00 (CEST)Avignon, France (7563): Quantités de précipitations: 03.07.2020 00:00:00 - 09.07.2020 00:00:00 (CEST)
Date & Time tt [°C] td [°C] tt 5cm [°C] ff [km/h] ff [knt] fx [km/h] fx [knt] dd ppp [hPa] vv [km] rr [mm]
09.07.2020 00:00:00 20,1 11,0 16,2 7 4 14 8 S 1017,2 60 0,0
08.07.2020 23:00:00 21,6 10,1 18,0 7 4 18 10 S 1016,8 60 0,0
08.07.2020 22:00:00 23,3 11,0 19,4 7 4 21 12 SSE 1016,0 60 0,0
08.07.2020 21:00:00 26,4 11,3 25,5 14 8 24 13 SW 1015,4 60 0,0
08.07.2020 20:00:00 28,9 12,3 30,3 16 9 29 16 SSW 1014,9 52 0,0
08.07.2020 19:00:00 30,6 12,9 33,6 19 10 28 15 SSW 1014,9 60 0,0
08.07.2020 18:00:00 33,1 11,0 38,7 8 4 25 13 WNW 1015,1 60 0,0
08.07.2020 17:00:00 33,0 10,9 39,4 8 4 21 11 NW 1015,4 60 0,0
08.07.2020 16:00:00 32,1 10,7 39,2 11 6 23 12 NW 1015,7 60 0,0
08.07.2020 15:00:00 31,6 10,9 38,2 10 6 27 14 N 1016,2 60 0,0
08.07.2020 14:00:00 30,6 10,5 37,5 7 4 23 12 NNE 1016,4 18 0,0
08.07.2020 13:00:00 29,6 10,7 35,6 9 5 20 11 W 1016,7 60 0,0
08.07.2020 12:00:00 28,5 10,7 30,0 10 6 25 13 NNW 1016,9 50 0,0
08.07.2020 11:00:00 27,1 10,7 27,3 11 6 23 13 NNW 1016,7 19 0,0
08.07.2020 10:00:00 24,8 9,9 23,8 11 6 21 12 NNW 1016,6 60 0,0
08.07.2020 09:00:00 22,5 10,3 20,6 7 4 13 7 N 1016,6 19 0,0
08.07.2020 08:00:00 19,1 9,8 13,7 0 0 10 5 N 1016,5 46 0,0
08.07.2020 07:00:00 16,0 9,6 12,7 3 2 6 3 SE 1016,1 54 0,0
08.07.2020 06:00:00 15,4 7,9 11,6 3 2 11 6 S 1015,9 60 0,0
08.07.2020 05:00:00 15,9 7,1 12,3 3 2 16 9 SSE 1015,6 60 0,0
08.07.2020 04:00:00 19,1 6,9 16,5 9 5 24 13 N 1015,7 60 0,0
08.07.2020 03:00:00 20,6 6,9 19,2 16 9 29 16 N 1015,7 60 0,0
08.07.2020 02:00:00 20,8 6,3 19,2 16 8 25 13 NNW 1015,7 60 0,0
08.07.2020 01:00:00 21,0 6,5 18,7 14 8 35 19 NNW 1015,6 60 0,0
08.07.2020 00:00:00 23,3 6,5 22,1 23 13 41 22 NNW 1015,2 60 0,0
07.07.2020 23:00:00 24,0 6,7 22,7 24 13 45 25 N 1014,9 60 0,0
07.07.2020 22:00:00 24,6 6,8 23,2 21 12 39 21 NNW 1014,6 60 0,0
07.07.2020 21:00:00 26,1 7,2 25,2 25 14 42 23 NNW 1014,4 38 0,0
07.07.2020 20:00:00 27,9 7,7 29,0 21 12 45 24 NW 1014,4 37 0,0
07.07.2020 19:00:00 28,7 7,8 31,0 29 16 46 25 NW 1014,3 18 0,0
07.07.2020 18:00:00 29,7 8,1 32,4 27 15 42 23 NW 1014,0 17 0,0
07.07.2020 17:00:00 29,7 8,1 34,3 28 15 47 25 NNW 1014,1 16 0,0
07.07.2020 16:00:00 30,6 8,9 35,0 26 14 48 26 NNW 1014,2 14 0,0
07.07.2020 15:00:00 29,5 8,5 33,7 31 17 52 28 N 1013,9 14 0,0
07.07.2020 14:00:00 28,3 7,5 31,9 34 18 60 32 NNW 1013,9 13 0,0
07.07.2020 13:00:00 26,8 7,8 29,5 40 22 62 34 NNW 1014,2 12 0,0
07.07.2020 12:00:00 25,5 7,6 26,0 38 21 66 36 NNW 1014,1 12 0,0
07.07.2020 11:00:00 23,8 7,0 23,9 43 23 72 39 NNW 1013,8 11 0,0
07.07.2020 10:00:00 22,3 7,3 21,4 41 22 80 43 N 1013,7 9 0,0
07.07.2020 09:00:00 20,7 6,6 19,8 50 27 85 46 N 1013,1 7 0,0
07.07.2020 08:00:00 19,3 6,1 18,5 40 22 80 43 NNW 1013,0 8 0,0
07.07.2020 07:00:00 18,6 5,8 17,8 48 26 81 44 NNW 1012,8 5 0,0
07.07.2020 06:00:00 18,8 5,3 18,2 42 23 80 43 N 1013,0 60 0,0
07.07.2020 05:00:00 19,4 5,4 18,5 42 23 82 44 N 1012,9 60 0,0
07.07.2020 04:00:00 19,7 5,7 19,1 50 27 90 49 NNW 1012,4 60 0,0
07.07.2020 03:00:00 20,2 6,2 19,4 42 23 96 52 N 1013,2 60 0,0
07.07.2020 02:00:00 21,1 6,2 20,4 56 30 91 49 NNW 1013,4 60 0,0
07.07.2020 01:00:00 21,5 6,2 20,6 40 21 83 45 NNW 1014,1 60 0,0
07.07.2020 00:00:00 22,5 5,8 21,4 46 25 78 42 NNW 1014,6 60 0,0
06.07.2020 23:00:00 23,1 5,0 22,4 43 23 87 47 NNW 1015,0 60 0,0
06.07.2020 22:00:00 24,3 5,6 23,4 41 22 77 42 NNW 1014,8 60 0,0
06.07.2020 21:00:00 25,5 6,2 25,1 42 23 78 42 N 1013,9 30 0,0
06.07.2020 20:00:00 27,3 5,0 27,4 47 26 81 44 N 1013,2 14 0,0
06.07.2020 19:00:00 28,5 6,6 30,0 49 26 80 43 N 1013,0 16 0,0
06.07.2020 18:00:00 28,9 7,5 31,7 45 24 74 40 N 1013,1 12 0,0
06.07.2020 17:00:00 29,5 11,1 31,3 42 23 76 41 N 1013,2 10 0,0
06.07.2020 16:00:00 29,8 12,7 33,6 44 24 73 40 N 1013,1 13 0,0
06.07.2020 15:00:00 29,9 13,6 33,3 44 24 70 38 N 1013,1 11 0,0
06.07.2020 14:00:00 30,3 15,2 33,9 38 20 71 38 N 1013,6 12 0,0
06.07.2020 13:00:00 29,7 15,0 32,7 37 20 71 38 N 1013,6 13 0,0
06.07.2020 12:00:00 29,2 15,0 29,8 43 23 78 42 NNW 1013,8 13 0,0
06.07.2020 11:00:00 27,6 14,9 28,6 45 25 78 42 NNW 1014,2 15 0,0
06.07.2020 10:00:00 26,9 15,6 26,6 40 22 71 38 NNW 1014,4 13 0,0
06.07.2020 09:00:00 25,7 16,3 25,2 40 22 79 43 NNW 1014,3 15 0,0
06.07.2020 08:00:00 24,6 16,3 23,8 41 22 59 32 NNW 1013,8 16 0,0
06.07.2020 07:00:00 24,1 16,1 22,5 35 19 52 28 NNW 1013,6 19 0,0
06.07.2020 06:00:00 23,6 15,9 22,5 30 16 46 25 NNW 1013,5 60 0,0
06.07.2020 05:00:00 23,8 15,8 22,4 21 11 43 23 NNW 1013,4 60 0,0
06.07.2020 04:00:00 25,0 15,0 23,8 23 12 48 26 NNW 1013,8 60 0,0
06.07.2020 03:00:00 25,2 15,2 24,1 26 14 46 25 NNW 1014,5 60 0,0
06.07.2020 02:00:00 25,4 15,7 24,4 25 13 40 22 NNW 1014,7 60 0,0
06.07.2020 01:00:00 26,2 15,3 24,8 23 12 34 19 NNW 1014,8 60 0,0
06.07.2020 00:00:00 26,8 15,5 25,6 23 12 39 21 NNW 1014,6 60 0,0
05.07.2020 23:00:00 28,1 15,4 26,7 22 12 40 21 NNW 1014,6 60 0,0
05.07.2020 22:00:00 29,1 15,6 27,8 24 13 40 22 N 1014,1 60 0,0
05.07.2020 21:00:00 30,6 15,5 30,0 26 14 49 26 N 1013,9 35 0,0
05.07.2020 20:00:00 32,1 15,6 33,0 25 13 50 27 N 1013,9 33 0,0
05.07.2020 19:00:00 33,2 15,2 35,3 27 15 44 24 NNW 1014,1 32 0,0
05.07.2020 18:00:00 33,6 15,6 37,1 28 15 45 24 N 1014,6 25 0,0
05.07.2020 17:00:00 33,9 15,4 38,1 23 13 42 23 N 1015,0 26 0,0
05.07.2020 16:00:00 33,2 15,2 38,2 26 14 42 23 NNW 1015,4 27 0,0
05.07.2020 15:00:00 33,6 15,1 37,9 22 12 36 20 NNW 1015,9 29 0,0
05.07.2020 14:00:00 32,3 14,9 35,8 23 13 48 26 NNW 1016,6 21 0,0
05.07.2020 13:00:00 30,9 15,3 33,8 30 16 55 30 NNW 1017,1 20 0,0
05.07.2020 12:00:00 29,2 14,6 30,1 29 16 66 35 N 1017,5 14 0,0
05.07.2020 11:00:00 28,2 14,1 28,4 43 23 74 40 NNW 1017,4 14 0,0
05.07.2020 10:00:00 26,8 13,5 26,1 37 20 63 34 NNW 1017,6 14 0,0
05.07.2020 09:00:00 25,1 12,7 24,4 34 18 58 31 NNW 1017,4 14 0,0
05.07.2020 08:00:00 24,0 12,3 22,5 29 16 46 25 NNW 1017,7 13 0,0
05.07.2020 07:00:00 22,6 11,3 21,6 35 19 59 32 NNW 1017,4 10 0,0
05.07.2020 06:00:00 22,3 10,4 21,5 29 16 54 29 NNW 1017,3 60 0,0
05.07.2020 05:00:00 22,6 10,4 21,4 28 15 52 28 NNW 1017,6 60 0,0
05.07.2020 04:00:00 22,9 10,7 21,5 27 15 46 25 NNW 1017,8 60 0,0
05.07.2020 03:00:00 23,3 10,4 21,1 22 12 49 26 N 1018,1 60 0,0
05.07.2020 02:00:00 23,1 10,2 21,6 16 9 36 20 NW 1018,2 60 0,0
05.07.2020 01:00:00 23,4 10,1 22,1 19 11 40 21 NW 1018,3 60 0,0
05.07.2020 00:00:00 24,4 9,5 23,1 27 15 42 23 NW 1017,9 60 0,0
04.07.2020 23:00:00 25,0 9,3 23,3 22 12 36 20 NNW 1018,2 60 0,0
04.07.2020 22:00:00 25,4 9,2 23,9 20 11 36 19 NNW 1017,7 60 0,0
04.07.2020 21:00:00 26,9 9,3 26,1 26 14 56 30 N 1017,4 42 0,0
04.07.2020 20:00:00 28,7 10,8 29,5 28 15 50 27 N 1017,2 27 0,0
04.07.2020 19:00:00 30,0 11,0 32,0 26 14 49 26 N 1016,9 23 0,0
04.07.2020 18:00:00 30,1 9,6 33,3 30 16 51 28 N 1017,4 21 0,0
04.07.2020 17:00:00 30,6 11,0 33,7 29 15 45 25 NW 1017,6 21 0,0
04.07.2020 16:00:00 29,4 11,9 33,7 27 15 43 23 NW 1017,9 23 0,0
04.07.2020 15:00:00 29,4 11,4 32,9 27 15 48 26 NNW 1017,9 25 0,0
04.07.2020 14:00:00 28,9 11,5 30,2 24 13 45 25 NNW 1018,5 25 0,0
04.07.2020 13:00:00 27,9 12,3 30,4 27 15 44 24 NW 1018,9 20 0,0
04.07.2020 12:00:00 27,2 11,6 28,1 22 12 43 23 N 1018,9 28 0,0
04.07.2020 11:00:00 25,3 11,1 26,1 29 16 46 25 N 1018,7 26 0,0
04.07.2020 10:00:00 24,2 11,2 23,8 28 15 47 26 NNW 1019,0 27 0,0
04.07.2020 09:00:00 22,8 10,9 21,6 24 13 49 27 N 1018,7 25 0,0
04.07.2020 08:00:00 21,1 10,0 19,6 29 15 53 28 N 1018,5 28 0,0
04.07.2020 07:00:00 19,7 9,6 18,5 28 15 50 27 NNW 1018,2 28 0,0
04.07.2020 06:00:00 19,4 9,6 18,6 29 16 60 32 NNW 1017,7 60 0,0
04.07.2020 05:00:00 19,6 9,5 18,7 29 16 53 29 NNW 1017,4 60 0,0
04.07.2020 04:00:00 19,7 9,6 18,7 29 15 51 27 NNW 1017,4 60 0,0
04.07.2020 03:00:00 20,1 9,3 19,1 28 15 50 27 NNW 1017,4 60 0,0
04.07.2020 02:00:00 20,7 9,3 19,7 30 16 52 28 NNW 1017,1 60 0,0
04.07.2020 01:00:00 20,9 9,2 20,0 31 17 55 30 NNW 1017,1 60 0,0
04.07.2020 00:00:00 21,7 8,9 20,7 26 14 55 30 NNW 1017,2 60 0,0
03.07.2020 23:00:00 22,5 8,9 21,5 33 18 63 34 NNW 1016,7 60 0,0
03.07.2020 22:00:00 23,0 8,7 21,9 29 16 67 36 NNW 1015,9 60 0,0
03.07.2020 21:00:00 24,0 8,0 23,6 36 20 74 40 NNW 1015,4 36 0,0
03.07.2020 20:00:00 25,3 9,2 26,1 44 24 77 42 N 1014,9 13 0,0
03.07.2020 19:00:00 26,1 9,0 27,9 44 24 86 47 NNW 1014,1 10 0,0
03.07.2020 18:00:00 26,9 8,8 29,5 44 24 76 41 NNW 1014,4 10 0,0
03.07.2020 17:00:00 27,3 9,2 30,2 44 24 89 48 NNW 1013,9 10 0,0
03.07.2020 16:00:00 27,3 9,2 29,6 44 24 82 44 N 1014,2 10 0,0
03.07.2020 15:00:00 27,4 9,2 30,9 44 24 75 40 NNW 1014,4 10 0,0
03.07.2020 14:00:00 27,1 9,9 29,7 41 22 74 40 N 1014,8 10 0,0
03.07.2020 13:00:00 25,6 9,8 28,4 42 23 72 39 NNW 1015,5 11 0,0
03.07.2020 12:00:00 24,8 9,5 25,7 43 23 74 40 NNW 1015,9 12 0,0
03.07.2020 11:00:00 23,5 10,2 24,2 45 25 72 39 NNW 1015,9 12 0,0
03.07.2020 10:00:00 22,5 10,3 22,3 41 22 63 34 NNW 1016,1 11 0,0
03.07.2020 09:00:00 21,2 10,7 20,7 39 21 63 34 NNW 1016,3 11 0,0
03.07.2020 08:00:00 20,0 11,2 18,9 31 17 51 27 NNW 1016,0 11 0,0
03.07.2020 07:00:00 19,0 11,6 18,1 31 17 54 29 NNW 1016,3 11 0,0
03.07.2020 06:00:00 19,2 11,2 18,2 31 17 52 28 NW 1015,9 60 0,0
03.07.2020 05:00:00 19,7 11,5 18,7 29 16 49 27 NW 1016,1 60 0,0
03.07.2020 04:00:00 19,8 12,3 19,0 26 14 44 24 NNW 1015,8 60 0,0
03.07.2020 03:00:00 20,0 12,5 19,0 21 11 46 25 NNW 1015,7 60 0,0
03.07.2020 02:00:00 20,9 12,1 19,9 27 14 57 31 NNW 1015,4 60 0,0
03.07.2020 01:00:00 21,6 12,7 20,7 35 19 58 31 NNW 1015,2 60 0,0
03.07.2020 00:00:00 21,9 13,8 20,9 32 17 53 28 NNW 1014,8 60 0,0

tt = Température de l'air
td = dewpoint
tt 5cm = Température de l'air 5cm
ff = Vitesse du vent
fx = gusts
dd = Direction du vent
ppp = reduced air pressure
vv = visibility
rr = Quantités de précipitations

stations d'obs. à proximité